| time (UTC) | temp C | wind direction | speed KPH | gust KPH | rain 1hr cm | rain 24hr cm | rain mn cm | humidity % | barometer mb |
| 20260502205622 | 21 | 192 | 9.7 | 25.7 | 0.00 | 0.00 | 0.00 | 18 | 1017.6 |
| 20260502204630 | 21 | 177 | 11.3 | 19.3 | 0.00 | 0.00 | 0.00 | 18 | 1017.7 |
| 20260502203616 | 21 | 185 | 11.3 | 20.9 | 0.00 | 0.00 | 0.00 | 18 | 1017.9 |
| 20260502202630 | 21 | 182 | 12.9 | 20.9 | 0.00 | 0.00 | 0.00 | 17 | 1018.1 |
| 20260502201619 | 21 | 243 | 9.7 | 22.5 | 0.00 | 0.00 | 0.00 | 17 | 1018.0 |
| 20260502200647 | 21 | 175 | 12.9 | 19.3 | 0.00 | 0.00 | 0.00 | 18 | 1018.1 |
| 20260502195625 | 21 | 161 | 9.7 | 24.1 | 0.00 | 0.00 | 0.00 | 19 | 1018.1 |
| 20260502194618 | 20 | 194 | 11.3 | 22.5 | 0.00 | 0.00 | 0.00 | 19 | 1018.3 |
| 20260502193647 | 20 | 184 | 16.1 | 22.5 | 0.00 | 0.00 | 0.00 | 20 | 1018.5 |
| 20260502192632 | 20 | 185 | 11.3 | 20.9 | 0.00 | 0.00 | 0.00 | 22 | 1018.5 |
| 20260502191618 | 20 | 200 | 12.9 | 20.9 | 0.00 | 0.00 | 0.00 | 22 | 1018.7 |
| 20260502190649 | 20 | 111 | 8.0 | 22.5 | 0.00 | 0.00 | 0.00 | 22 | 1018.8 |
| 20260502185628 | 20 | 182 | 11.3 | 19.3 | 0.00 | 0.00 | 0.00 | 22 | 1018.9 |
| 20260502184635 | 20 | 188 | 11.3 | 20.9 | 0.00 | 0.00 | 0.00 | 23 | 1018.9 |
| 20260502183622 | 20 | 235 | 11.3 | 17.7 | 0.00 | 0.00 | 0.00 | 22 | 1019.1 |
| 20260502182630 | 19 | 178 | 8.0 | 20.9 | 0.00 | 0.00 | 0.00 | 23 | 1019.2 |
| 20260502181622 | 19 | 234 | 11.3 | 19.3 | 0.00 | 0.00 | 0.00 | 22 | 1019.3 |
| 20260502180638 | 19 | 232 | 9.7 | 17.7 | 0.00 | 0.00 | 0.00 | 24 | 1019.3 |
| 20260502163644 | 17 | 207 | 9.7 | 17.7 | 0.00 | 0.00 | 0.00 | 28 | 1019.5 |
| 20260502162628 | 17 | 216 | 1.6 | 8.0 | 0.00 | 0.00 | 0.00 | 31 | 1019.5 |
| 20260502161616 | 16 | 171 | 3.2 | 6.4 | 0.00 | 0.00 | 0.00 | 31 | 1019.6 |
| 20260502160628 | 16 | 194 | 1.6 | 8.0 | 0.00 | 0.00 | 0.00 | 32 | 1019.7 |
| 20260502151617 | 12 | 5 | 0.0 | 1.6 | 0.00 | 0.00 | 0.00 | 41 | 1019.8 |
| 20260502150627 | 10 | 5 | 0.0 | 3.2 | 0.00 | 0.00 | 0.00 | 46 | 1019.8 |
| 20260502130615 | 0 | 45 | 1.6 | 8.0 | 0.00 | 0.00 | 0.00 | 71 | 1019.3 |
| 20260502123652 | -1 | 37 | 0.0 | 1.6 | 0.00 | 0.00 | 0.00 | 71 | 1019.2 |
| 20260502122617 | -1 | 37 | 1.6 | 6.4 | 0.00 | 0.00 | 0.00 | 70 | 1019.1 |
| 20260502121624 | -1 | 37 | 4.8 | 8.0 | 0.00 | 0.00 | 0.00 | 68 | 1019.1 |
| 20260502120616 | 0 | 33 | 1.6 | 8.0 | 0.00 | 0.00 | 0.00 | 67 | 1019.2 |
| 20260502115638 | 0 | 26 | 1.6 | 8.0 | 0.00 | 0.00 | 0.00 | 67 | 1019.1 |
| 20260502114625 | 0 | 44 | 3.2 | 8.0 | 0.00 | 0.00 | 0.00 | 68 | 1019.1 |
| 20260502113613 | 0 | 11 | 4.8 | 6.4 | 0.00 | 0.00 | 0.00 | 69 | 1019.3 |
| 20260502112619 | 0 | 11 | 0.0 | 3.2 | 0.00 | 0.00 | 0.00 | 68 | 1019.3 |
| 20260502111630 | 0 | 11 | 3.2 | 6.4 | 0.00 | 0.00 | 0.00 | 69 | 1019.4 |
| 20260502110617 | 0 | 60 | 1.6 | 8.0 | 0.00 | 0.00 | 0.00 | 68 | 1019.3 |
| 20260502105618 | 0 | 28 | 4.8 | 9.7 | 0.00 | 0.00 | 0.00 | 69 | 1019.4 |
| 20260502104626 | 0 | 46 | 6.4 | 8.0 | 0.00 | 0.00 | 0.00 | 68 | 1019.4 |
| 20260502103618 | 0 | 46 | 4.8 | 8.0 | 0.00 | 0.00 | 0.00 | 68 | 1019.4 |
| 20260502102625 | 0 | 350 | 3.2 | 6.4 | 0.00 | 0.00 | 0.00 | 69 | 1019.4 |
| 20260502101613 | 0 | 50 | 3.2 | 6.4 | 0.00 | 0.00 | 0.00 | 67 | 1019.4 |
| 20260502100621 | 0 | 50 | 1.6 | 8.0 | 0.00 | 0.00 | 0.00 | 65 | 1019.4 |
| 20260502090631 | 3 | 338 | 1.6 | 4.8 | 0.00 | 0.00 | 0.00 | 58 | 1019.3 |
| 20260502070649 | 5 | 47 | 1.6 | 8.0 | 0.00 | 0.00 | 0.00 | 52 | 1019.3 |
| 20260502065647 | 5 | 46 | 3.2 | 8.0 | 0.00 | 0.00 | 0.00 | 52 | 1019.3 |
| 20260502064631 | 6 | 46 | 1.6 | 4.8 | 0.00 | 0.00 | 0.00 | 50 | 1019.3 |
| 20260502063617 | 6 | 46 | 4.8 | 8.0 | 0.00 | 0.00 | 0.00 | 49 | 1019.2 |
| 20260502062625 | 6 | 46 | 3.2 | 8.0 | 0.00 | 0.00 | 0.00 | 48 | 1019.3 |
| 20260502061638 | 6 | 46 | 1.6 | 8.0 | 0.00 | 0.00 | 0.00 | 48 | 1019.3 |
| 20260502060647 | 5 | 46 | 3.2 | 8.0 | 0.00 | 0.00 | 0.00 | 47 | 1019.3 |
| 20260502055627 | 5 | 46 | 1.6 | 4.8 | 0.00 | 0.00 | 0.00 | 46 | 1019.2 |
| 20260502054615 | 6 | 46 | 1.6 | 6.4 | 0.00 | 0.00 | 0.00 | 44 | 1019.2 |
| 20260502053623 | 6 | 339 | 3.2 | 4.8 | 0.00 | 0.00 | 0.00 | 44 | 1019.1 |
| 20260502052615 | 6 | 339 | 1.6 | 4.8 | 0.00 | 0.00 | 0.00 | 44 | 1019.1 |
| 20260502051622 | 7 | 339 | 1.6 | 3.2 | 0.00 | 0.00 | 0.00 | 42 | 1019.1 |
| 20260502050628 | 7 | 339 | 0.0 | 3.2 | 0.00 | 0.00 | 0.00 | 41 | 1019.1 |
| 20260502045626 | 7 | 339 | 1.6 | 3.2 | 0.00 | 0.00 | 0.00 | 41 | 1019.0 |
| 20260502044615 | 8 | 339 | 0.0 | 1.6 | 0.00 | 0.00 | 0.00 | 40 | 1019.1 |
| 20260502043642 | 8 | 339 | 0.0 | 1.6 | 0.00 | 0.00 | 0.00 | 39 | 1019.1 |
| 20260502042627 | 9 | 339 | 0.0 | 8.0 | 0.00 | 0.00 | 0.00 | 37 | 1019.0 |
| 20260502041615 | 10 | 86 | 3.2 | 6.4 | 0.00 | 0.00 | 0.00 | 36 | 1019.0 |
| 20260502040622 | 10 | 107 | 1.6 | 3.2 | 0.00 | 0.00 | 0.00 | 34 | 1018.9 |
| 20260502035623 | 11 | 113 | 0.0 | 4.8 | 0.00 | 0.00 | 0.00 | 34 | 1019.0 |
| 20260502034630 | 11 | 111 | 3.2 | 6.4 | 0.00 | 0.00 | 0.00 | 34 | 1018.8 |
| 20260502033617 | 12 | 40 | 4.8 | 8.0 | 0.00 | 0.00 | 0.00 | 32 | 1018.6 |
| 20260502032625 | 12 | 33 | 4.8 | 8.0 | 0.00 | 0.00 | 0.00 | 32 | 1018.6 |
| 20260502031638 | 13 | 78 | 3.2 | 6.4 | 0.00 | 0.00 | 0.00 | 28 | 1018.1 |
| 20260502030626 | 14 | 160 | 3.2 | 9.7 | 0.00 | 0.00 | 0.00 | 29 | 1017.9 |
| 20260502025644 | 14 | 194 | 4.8 | 8.0 | 0.00 | 0.00 | 0.00 | 29 | 1017.6 |
| 20260502024630 | 15 | 231 | 3.2 | 8.0 | 0.00 | 0.00 | 0.00 | 29 | 1017.6 |
| 20260502023621 | 16 | 179 | 3.2 | 9.7 | 0.00 | 0.00 | 0.00 | 25 | 1017.4 |
| 20260502022628 | 16 | 192 | 6.4 | 9.7 | 0.00 | 0.00 | 0.00 | 25 | 1017.4 |
| 20260502021615 | 17 | 170 | 4.8 | 11.3 | 0.00 | 0.00 | 0.00 | 24 | 1017.4 |
| 20260502020624 | 18 | 132 | 1.6 | 8.0 | 0.00 | 0.00 | 0.00 | 21 | 1017.2 |
| 20260502015627 | 18 | 128 | 3.2 | 9.7 | 0.00 | 0.00 | 0.00 | 21 | 1017.1 |
| 20260502014617 | 18 | 146 | 4.8 | 11.3 | 0.00 | 0.00 | 0.00 | 20 | 1017.1 |
| 20260502013628 | 19 | 115 | 6.4 | 12.9 | 0.00 | 0.00 | 0.00 | 19 | 1017.0 |
| 20260502012618 | 19 | 123 | 6.4 | 11.3 | 0.00 | 0.00 | 0.00 | 19 | 1017.0 |
| 20260502011630 | 19 | 143 | 4.8 | 9.7 | 0.00 | 0.00 | 0.00 | 19 | 1016.9 |
| 20260502010617 | 19 | 85 | 4.8 | 11.3 | 0.00 | 0.00 | 0.00 | 19 | 1017.0 |
| 20260502005614 | 19 | 119 | 1.6 | 6.4 | 0.00 | 0.00 | 0.00 | 18 | 1017.0 |
| 20260502004623 | 19 | 92 | 3.2 | 9.7 | 0.00 | 0.00 | 0.00 | 19 | 1016.9 |
| 20260502003613 | 19 | 55 | 3.2 | 6.4 | 0.00 | 0.00 | 0.00 | 18 | 1017.0 |
| 20260502002623 | 19 | 5 | 4.8 | 8.0 | 0.00 | 0.00 | 0.00 | 19 | 1017.1 |
| 20260502001615 | 19 | 30 | 1.6 | 12.9 | 0.00 | 0.00 | 0.00 | 18 | 1017.2 |
| 20260502000621 | 19 | 29 | 3.2 | 9.7 | 0.00 | 0.00 | 0.00 | 18 | 1017.2 |
| 20260501235645 | 19 | 54 | 1.6 | 8.0 | 0.00 | 0.00 | 0.00 | 18 | 1017.2 |
| 20260501234613 | 20 | 79 | 4.8 | 12.9 | 0.00 | 0.00 | 0.00 | 18 | 1017.3 |
| 20260501233622 | 20 | 75 | 3.2 | 8.0 | 0.00 | 0.00 | 0.00 | 17 | 1017.3 |
| 20260501232612 | 20 | 348 | 6.4 | 12.9 | 0.00 | 0.00 | 0.00 | 18 | 1017.4 |
| 20260501231626 | 20 | 355 | 4.8 | 12.9 | 0.00 | 0.00 | 0.00 | 17 | 1017.4 |
| 20260501230614 | 20 | 59 | 3.2 | 12.9 | 0.00 | 0.00 | 0.00 | 17 | 1017.5 |
| 20260501225614 | 20 | 323 | 3.2 | 12.9 | 0.00 | 0.00 | 0.00 | 17 | 1017.6 |
| 20260501224622 | 20 | 319 | 3.2 | 8.0 | 0.00 | 0.00 | 0.00 | 18 | 1017.7 |
| 20260501223613 | 20 | 294 | 6.4 | 17.7 | 0.00 | 0.00 | 0.00 | 16 | 1017.7 |
| 20260501222620 | 20 | 309 | 3.2 | 17.7 | 0.00 | 0.00 | 0.00 | 17 | 1018.0 |
| 20260501221626 | 19 | 121 | 4.8 | 9.7 | 0.00 | 0.00 | 0.00 | 17 | 1018.0 |
| 20260501220617 | 20 | 329 | 6.4 | 12.9 | 0.00 | 0.00 | 0.00 | 17 | 1018.3 |
| 20260501215619 | 20 | 355 | 0.0 | 12.9 | 0.00 | 0.00 | 0.00 | 16 | 1018.3 |
| 20260501214626 | 19 | 256 | 4.8 | 16.1 | 0.00 | 0.00 | 0.00 | 17 | 1018.6 |
| 20260501213615 | 19 | 280 | 6.4 | 11.3 | 0.00 | 0.00 | 0.00 | 18 | 1018.6 |
| 20260501212627 | 18 | 269 | 3.2 | 8.0 | 0.00 | 0.00 | 0.00 | 19 | 1018.7 |
| 20260501211636 | 18 | 329 | 6.4 | 22.5 | 0.00 | 0.00 | 0.00 | 19 | 1018.9 |
| 20260501210621 | 18 | 19 | 8.0 | 14.5 | 0.00 | 0.00 | 0.00 | 19 | 1018.9 |